Location: Pace/Milton
(30.6162°N, 87.1503°W)
Time: 10:46:59
(UTC-06:00)

N. Korean satellite - Pass Details

Date: 03 December 2021
Orbit: 447 x 491 km, 97.3° (Epoch: 21 January)

Event Time Altitude Azimuth Distance (km) Brightness Sun altitude
Rises 05:38:32 0° 352° (N) 2,451 9.9 -11.1°
Reaches altitude 10° 05:40:56 10° 335° (NNW) 1,574 8.7 -10.6°
Maximum altitude 05:43:25 19° 287° (WNW) 1,114 7.7 -10.1°
Drops below altitude 10° 05:45:53 10° 239° (WSW) 1,567 8.8 -9.6°
Sets 05:48:17 0° 222° (SW) 2,437 9.9 -9.1°
